This is the latest recevied weather packets stored in our database for station/object DX1GM-13. If no packets are shown the sender has not sent any weather packets the latest 10 day(s).
| Time | Temp. | Humidity | Pressure | Rain* | Wind** | Luminosity | Snow |
|---|---|---|---|---|---|---|---|
| 1788267303 | 21.67° C | 69% | 1011.7 hPa | 0 mm | - | - | - |
| 1788267003 | 21.67° C | 69% | 1011.6 hPa | 0.25 mm | - | - | - |
| 1788266703 | 21.67° C | 69% | 1011.4 hPa | 0.25 mm | - | - | - |
| 1788266403 | 21.11° C | 71% | 1011.6 hPa | 0.25 mm | - | - | - |
| 1788266103 | 21.11° C | 72% | 1011.4 hPa | 0.25 mm | - | - | - |
| 1788265803 | 21.11° C | 72% | 1011.7 hPa | 0.25 mm | - | - | - |
| 1788265503 | 21.11° C | 73% | 1011.7 hPa | 0.25 mm | - | - | - |
| 1788265203 | 21.11° C | 74% | 1011.7 hPa | 0.25 mm | - | - | - |
| 1788264903 | 21.11° C | 74% | 1011.7 hPa | 0.25 mm | - | - | - |
| 1788264603 | 20.56° C | 74% | 1011.8 hPa | 0.25 mm | - | - | - |
| 1788264303 | 20.56° C | 71% | 1011.7 hPa | 0.25 mm | - | - | - |
| 1788264003 | 20.56° C | 71% | 1011.6 hPa | 0.25 mm | - | - | - |
| 1788263703 | 20.56° C | 70% | 1011.9 hPa | 0.25 mm | - | - | - |
| 1788263403 | 20.56° C | 68% | 1011.9 hPa | 0 mm | - | - | - |
| 1788263103 | 21.11° C | 66% | 1011.7 hPa | 0 mm | - | - | - |
| 1788262803 | 21.67° C | 66% | 1011.8 hPa | 0 mm | - | - | - |
| 1788262503 | 21.67° C | 67% | 1011.6 hPa | 0 mm | - | - | - |
| 1788262203 | 21.67° C | 68% | 1011.5 hPa | 0 mm | - | - | - |
| 1788261903 | 21.11° C | 68% | 1011.8 hPa | 0 mm | - | - | - |
| 1788261603 | 21.11° C | 68% | 1011.8 hPa | 0 mm | - | - | - |
| 1788261303 | 21.11° C | 68% | 1011.6 hPa | 0 mm | - | - | - |
| 1788261003 | 21.11° C | 68% | 1011.7 hPa | 0 mm | - | - | - |
| 1788260703 | 21.11° C | 68% | 1011.8 hPa | 0 mm | - | - | - |
| 1788260403 | 21.11° C | 68% | 1011.8 hPa | 0 mm | - | - | - |
| 1788260103 | 21.11° C | 69% | 1011.8 hPa | 0 mm | - | - | - |
* Rain latest hour (hover to see other rain measurements)
** Current wind speed in m/s (hover to see current wind gust speed)